{"data":{"norad_id":65579,"epoch":"2026-09-20T00:39:17.059392Z","epoch_age_seconds":55204,"freshness":"FRESH","line1":"1 65579U 25203Q   26263.02728078  .00000088  00000+0  69390-4 0  9993","line2":"2 65579  81.3029 283.4187 0004650 312.5469  47.5294 13.83275783 51795","mean_motion":13.83275783,"eccentricity":0.000465,"inclination_deg":81.3029,"raan_deg":283.4187,"arg_perigee_deg":312.5469,"mean_anomaly_deg":47.5294,"bstar":6.939e-5,"rev_number":5179,"period_min":104.1007164079,"perigee_km":948.88223311235,"apogee_km":955.69953104268,"semimajor_km":7330.4278820775,"source":"CELESTRAK","updated_at":"2026-09-20T09:00:47.717626Z"}}